TimeCST,TemperatureF,Dew PointF,Humidity,Sea Level PressureIn,VisibilityMPH,Wind Direction,Wind SpeedMPH,Gust SpeedMPH,PrecipitationIn,Events,Conditions,WindDirDegrees,DateUTC
12:15 AM,40.3,32.7,74,30.24,10.0,SSW,4.6,-,N/A,,Overcast,200,2013-11-11 06:15:00
12:35 AM,40.1,33.3,77,30.25,10.0,WSW,4.6,-,N/A,,Overcast,240,2013-11-11 06:35:00
12:55 AM,40.6,32.4,72,30.24,10.0,SSW,9.2,-,N/A,,Overcast,210,2013-11-11 06:55:00
1:15 AM,40.1,32.5,74,30.24,10.0,SSW,6.9,-,N/A,,Overcast,210,2013-11-11 07:15:00
1:35 AM,40.6,32.5,73,30.23,10.0,SSW,8.1,-,N/A,,Overcast,200,2013-11-11 07:35:00
1:55 AM,40.3,32.5,74,30.22,10.0,SSW,6.9,-,N/A,,Overcast,200,2013-11-11 07:55:00
2:15 AM,40.5,32.2,72,30.21,10.0,SSW,6.9,-,N/A,,Overcast,200,2013-11-11 08:15:00
2:35 AM,40.6,32.2,72,30.20,10.0,SSW,6.9,-,N/A,,Overcast,200,2013-11-11 08:35:00
2:55 AM,41.0,32.5,72,30.20,10.0,SSW,5.8,-,N/A,,Overcast,200,2013-11-11 08:55:00
3:15 AM,40.6,32.4,72,30.19,10.0,SSW,9.2,-,N/A,,Overcast,210,2013-11-11 09:15:00
3:35 AM,40.6,32.5,73,30.19,10.0,SSW,6.9,-,N/A,,Overcast,200,2013-11-11 09:35:00
3:55 AM,40.3,32.5,74,30.17,10.0,South,9.2,-,N/A,,Overcast,180,2013-11-11 09:55:00
4:15 AM,40.3,32.5,74,30.17,10.0,South,10.4,-,N/A,,Overcast,190,2013-11-11 10:15:00
4:35 AM,41.0,32.7,72,30.16,10.0,South,11.5,-,N/A,,Overcast,190,2013-11-11 10:35:00
4:55 AM,41.2,33.1,73,30.16,10.0,South,10.4,-,N/A,,Overcast,190,2013-11-11 10:55:00
5:15 AM,41.7,33.3,72,30.16,10.0,SSW,9.2,-,N/A,,Overcast,200,2013-11-11 11:15:00
5:35 AM,42.3,33.3,70,30.14,10.0,SSW,9.2,-,N/A,,Overcast,200,2013-11-11 11:35:00
5:55 AM,42.1,33.6,72,30.14,10.0,South,10.4,-,N/A,,Overcast,190,2013-11-11 11:55:00
6:15 AM,42.8,33.3,69,30.13,10.0,South,10.4,-,N/A,,Overcast,190,2013-11-11 12:15:00
6:35 AM,43.3,33.6,69,30.13,10.0,SSW,12.7,-,N/A,,Overcast,200,2013-11-11 12:35:00
6:55 AM,43.7,33.8,68,30.12,10.0,SSW,12.7,16.1,N/A,,Overcast,200,2013-11-11 12:55:00
7:15 AM,44.1,34.0,68,30.12,10.0,SSW,12.7,16.1,N/A,,Overcast,200,2013-11-11 13:15:00
7:35 AM,44.6,34.3,67,30.12,10.0,SSW,10.4,-,N/A,,Overcast,210,2013-11-11 13:35:00
7:55 AM,44.8,34.7,68,30.12,10.0,SSW,11.5,-,N/A,,Overcast,210,2013-11-11 13:55:00
8:15 AM,45.0,34.9,68,30.12,10.0,SSW,13.8,-,N/A,,Overcast,210,2013-11-11 14:15:00
8:35 AM,45.3,35.1,67,30.12,10.0,SSW,12.7,18.4,N/A,,Overcast,210,2013-11-11 14:35:00
8:55 AM,45.5,35.2,67,30.14,10.0,West,4.6,-,N/A,,Overcast,280,2013-11-11 14:55:00
9:15 AM,46.0,35.6,67,30.14,10.0,WSW,6.9,-,N/A,,Overcast,240,2013-11-11 15:15:00
9:35 AM,46.4,36.5,68,30.14,10.0,WSW,5.8,-,N/A,,Overcast,240,2013-11-11 15:35:00
9:55 AM,47.3,36.1,65,30.14,10.0,West,4.6,-,N/A,,Overcast,270,2013-11-11 15:55:00
10:15 AM,47.5,36.0,64,30.14,10.0,West,9.2,-,N/A,,Overcast,260,2013-11-11 16:15:00
10:35 AM,47.5,36.1,65,30.13,10.0,WSW,8.1,-,N/A,,Overcast,240,2013-11-11 16:35:00
10:55 AM,47.8,36.3,64,30.12,10.0,West,6.9,-,N/A,,Overcast,260,2013-11-11 16:55:00
11:15 AM,48.2,36.3,63,30.13,10.0,West,9.2,-,N/A,,Overcast,280,2013-11-11 17:15:00
11:35 AM,47.5,36.5,66,30.12,10.0,West,5.8,-,N/A,,Overcast,260,2013-11-11 17:35:00
11:55 AM,47.5,37.2,68,30.12,10.0,West,6.9,-,N/A,,Overcast,280,2013-11-11 17:55:00
12:15 PM,47.3,35.6,64,30.12,10.0,NNW,8.1,-,N/A,Rain,Light Rain,330,2013-11-11 18:15:00
12:35 PM,45.7,36.7,71,30.13,10.0,NW,12.7,-,N/A,,Overcast,320,2013-11-11 18:35:00
12:55 PM,43.2,39.7,88,30.14,5.0,NNW,11.5,-,N/A,,Drizzle,330,2013-11-11 18:55:00
1:15 PM,42.3,40.1,92,30.14,5.0,NNW,8.1,-,N/A,,Light Drizzle,340,2013-11-11 19:15:00
1:35 PM,41.9,39.9,93,30.15,4.0,NNW,9.2,16.1,N/A,,Drizzle,340,2013-11-11 19:35:00
1:55 PM,41.4,40.1,95,30.16,3.0,NNW,6.9,-,0.01,,Drizzle,340,2013-11-11 19:55:00
2:15 PM,41.0,39.4,94,30.17,3.0,NNW,11.5,16.1,0.01,Rain,Light Rain,340,2013-11-11 20:15:00
2:35 PM,40.6,38.7,93,30.17,7.0,NNW,6.9,-,0.02,Rain,Light Rain,340,2013-11-11 20:35:00
2:55 PM,39.2,37.2,93,30.19,7.0,North,10.4,18.4,0.03,Rain,Light Rain,350,2013-11-11 20:55:00
3:15 PM,37.0,34.9,92,30.20,10.0,North,15.0,24.2,0.01,Rain,Light Rain,350,2013-11-11 21:15:00
3:35 PM,36.0,34.0,93,30.22,7.0,North,16.1,23.0,0.03,Rain,Light Rain,360,2013-11-11 21:35:00
3:55 PM,35.1,33.3,93,30.23,10.0,North,11.5,19.6,0.04,Rain,Light Rain,350,2013-11-11 21:55:00
4:15 PM,33.8,32.4,94,30.24,4.0,North,9.2,-,0.01,,Overcast,360,2013-11-11 22:15:00
4:35 PM,33.1,32.0,96,30.24,2.5,North,8.1,-,0.01,Snow,Light Snow,360,2013-11-11 22:35:00
4:55 PM,32.9,32.0,96,30.26,4.0,North,9.2,16.1,0.01,Snow,Light Snow,360,2013-11-11 22:55:00
5:15 PM,32.9,32.0,96,30.27,3.0,North,9.2,-,N/A,Snow,Light Snow,360,2013-11-11 23:15:00
5:35 PM,32.2,30.7,94,30.29,2.5,North,13.8,21.9,N/A,Snow,Light Snow,360,2013-11-11 23:35:00
5:55 PM,32.0,30.6,94,30.31,2.5,North,12.7,20.7,N/A,Snow,Light Snow,360,2013-11-11 23:55:00
6:15 PM,31.6,29.8,93,30.32,2.0,North,10.4,21.9,N/A,Snow,Light Snow,360,2013-11-12 00:15:00
6:35 PM,31.1,29.7,94,30.33,2.5,North,13.8,20.7,N/A,Snow,Light Snow,360,2013-11-12 00:35:00
6:55 PM,31.1,29.3,93,30.34,2.0,North,8.1,16.1,N/A,Snow,Light Snow,350,2013-11-12 00:55:00
7:15 PM,30.7,28.9,93,30.35,5.0,NNW,9.2,-,N/A,Snow,Light Snow,340,2013-11-12 01:15:00
7:35 PM,30.6,27.1,87,30.36,10.0,NNW,11.5,17.3,N/A,,Overcast,340,2013-11-12 01:35:00
7:55 PM,30.0,24.6,80,30.37,10.0,NNW,11.5,19.6,N/A,,Overcast,340,2013-11-12 01:55:00
8:15 PM,29.7,23.2,77,30.38,10.0,NNW,12.7,19.6,N/A,,Mostly Cloudy,340,2013-11-12 02:15:00
8:35 PM,29.3,23.0,77,30.39,10.0,NNW,9.2,-,N/A,,Scattered Clouds,340,2013-11-12 02:35:00
8:55 PM,29.3,22.6,76,30.40,10.0,NNW,12.7,19.6,N/A,,Clear,340,2013-11-12 02:55:00
9:15 PM,28.9,22.5,77,30.41,10.0,NNW,12.7,19.6,N/A,,Clear,340,2013-11-12 03:15:00
9:35 PM,28.9,21.9,75,30.42,10.0,NNW,12.7,19.6,N/A,,Clear,340,2013-11-12 03:35:00
9:55 PM,28.6,20.5,72,30.43,10.0,NNW,10.4,21.9,N/A,,Clear,340,2013-11-12 03:55:00
10:15 PM,28.4,20.1,71,30.44,10.0,NNW,11.5,19.6,N/A,,Clear,330,2013-11-12 04:15:00
10:35 PM,28.0,20.3,73,30.44,10.0,NNW,13.8,19.6,N/A,,Clear,340,2013-11-12 04:35:00
10:55 PM,27.5,19.8,73,30.45,10.0,NNW,10.4,18.4,N/A,,Clear,330,2013-11-12 04:55:00
11:15 PM,27.1,19.4,73,30.46,10.0,NNW,11.5,-,N/A,,Clear,330,2013-11-12 05:15:00
11:35 PM,27.0,18.9,72,30.47,10.0,NNW,13.8,20.7,N/A,,Clear,330,2013-11-12 05:35:00
11:55 PM,26.2,18.5,73,30.48,10.0,NNW,10.4,18.4,N/A,,Clear,330,2013-11-12 05:55:00